Change the Weather History Date:

Wednesday, April 10, 2013

  Actual Average (KOMA) Record (KOMA)
Temperature  
Mean Temperature 36 °F 50 °F  
Max Temperature 38 °F 62 °F 93 °F (1930)
Min Temperature 33 °F 38 °F 19 °F (1989)
Degree Days  
Heating Degree Days 29 16  
Month to date heating degree days 173  
Since 1 July heating degree days 5762  
Cooling Degree Days 0 0  
Month to date cooling degree days 0  
Year to date cooling degree days 1  
Moisture  
Dew Point 35 °F    
Average Humidity 94    
Maximum Humidity 96    
Minimum Humidity 88    
Precipitation  
Precipitation 0.42 in 0.09 in 1.38 in (1944)
Month to date precipitation 0.85  
Year to date precipitation 4.41  
Snow  
Snow 0.00 in 0.00 in - ()
Month to date snowfall 0.5  
Since 1 July snowfall 25.9  
Snow Depth -    
Sea Level Pressure  
Sea Level Pressure 29.88 in    
Wind  
Wind Speed 9 mph (NNW)    
Max Wind Speed 16 mph    
Max Gust Speed 23 mph    
Visibility 6 miles    
Events Rain , Snow    
T = Trace of Precipitation, MM = Missing Value Source: NWS Daily Summary

Daily Weather History Graph

Daily Weather History Graph

Search for Another Location

Airport or City:

Trip Planner

Search our weather history database for the weather conditions in past years. The results will help you decide how hot, cold, wet, or windy it might be!

Date:

Astronomy

Apr. 10, 2013 Rise Set
Actual Time 6:52 AM CDT 7:59 PM CDT
Civil Twilight 6:24 AM CDT 8:27 PM CDT
Nautical Twilight 5:50 AM CDT 9:01 PM CDT
Astronomical Twilight 5:15 AM CDT 9:37 PM CDT
Moon 6:48 AM CDT (4/10) 8:37 PM CDT (4/10)
Length of Visible Light 14h 03m
Length of Day
13h 06m
New Moon, 0% of the Moon is Illuminated
Apr 10
New Moon
Apr 18
First Quarter
Apr 25
Full
May 2
Last Quarter
May 9
New

Hourly Weather History & Observations

Time (CDT) Temp. Windchill Dew Point Humidity Pressure Visibility Wind Dir Wind Speed Gust Speed Precip Events Conditions
12:15 AM 39.4 °F 33.2 °F 37.4 °F 93% 29.97 in 7.0 mi WNW 9.2 mph - 0.03 in Rain Rain
12:35 AM 37.2 °F 27.9 °F 35.6 °F 94% 29.96 in 4.0 mi NW 16.1 mph - 0.09 in Rain Rain
12:55 AM 36.5 °F 29.2 °F 34.9 °F 94% 29.91 in 3.0 mi North 10.4 mph 21.9 mph 0.19 in Rain Rain
1:15 AM 36.5 °F 31.0 °F 34.9 °F 94% 29.84 in 4.0 mi ENE 6.9 mph 19.6 mph 0.05 in Rain Rain
1:35 AM 36.9 °F 29.1 °F 35.4 °F 95% 29.95 in 7.0 mi West 11.5 mph 23.0 mph 0.10 in Rain Rain
1:55 AM 36.7 °F 29.4 °F 35.1 °F 94% 29.91 in 10.0 mi NW 10.4 mph - 0.11 in Rain Light Rain
2:15 AM 36.5 °F 28.2 °F 34.7 °F 93% 29.84 in 10.0 mi NNW 12.7 mph 16.1 mph 0.01 in Rain Light Rain
2:35 AM 36.1 °F 28.7 °F 34.7 °F 94% 29.80 in 10.0 mi NNW 10.4 mph 17.3 mph 0.01 in   Overcast
2:55 AM 36.5 °F 28.2 °F 34.9 °F 94% 29.90 in 10.0 mi NW 12.7 mph 19.6 mph 0.01 in   Overcast
3:15 AM 36.7 °F 28.9 °F 34.9 °F 93% 29.91 in 10.0 mi North 11.5 mph 20.7 mph N/A   Overcast
3:35 AM 36.5 °F 30.3 °F 34.9 °F 94% 29.88 in 4.0 mi North 8.1 mph 18.4 mph N/A   Overcast
3:55 AM 36.5 °F 28.2 °F 35.1 °F 95% 29.87 in 4.0 mi North 12.7 mph 19.6 mph N/A   Overcast
4:15 AM 36.7 °F 29.9 °F 35.2 °F 95% 29.86 in 5.0 mi North 9.2 mph 19.6 mph N/A   Overcast
4:35 AM 36.9 °F 29.6 °F 35.6 °F 95% 29.86 in 7.0 mi North 10.4 mph 16.1 mph N/A   Overcast
4:55 AM 37.0 °F 31.0 °F 35.6 °F 95% 29.85 in 7.0 mi NNW 8.1 mph - N/A   Overcast
5:15 AM 37.4 °F 32.1 °F 36.0 °F 95% 29.89 in 10.0 mi North 6.9 mph - N/A   Overcast
5:35 AM 37.4 °F 32.8 °F 35.8 °F 94% 29.90 in 10.0 mi NNW 5.8 mph - N/A   Overcast
5:55 AM 37.4 °F 31.4 °F 35.8 °F 94% 29.89 in 4.0 mi NNW 8.1 mph - N/A   Overcast
6:15 AM 37.4 °F 30.8 °F 35.8 °F 94% 29.89 in 3.0 mi North 9.2 mph - N/A   Overcast
6:35 AM 37.0 °F 31.6 °F 35.8 °F 95% 29.88 in 4.0 mi North 6.9 mph - N/A   Overcast
6:55 AM 37.4 °F 32.8 °F 36.0 °F 95% 29.89 in 4.0 mi North 5.8 mph - N/A   Overcast
7:15 AM 37.4 °F - 36.1 °F 95% 29.89 in 5.0 mi Calm Calm - N/A   Overcast
7:35 AM 37.6 °F 35.1 °F 36.3 °F 95% 29.91 in 5.0 mi NNW 3.5 mph - N/A   Overcast
7:55 AM 37.6 °F 32.3 °F 36.1 °F 95% 29.91 in 5.0 mi NNW 6.9 mph - N/A   Light Drizzle
8:15 AM 37.6 °F 31.0 °F 36.1 °F 95% 29.94 in 4.0 mi NW 9.2 mph 16.1 mph N/A   Light Drizzle
8:35 AM - - - N/A% 29.91 in 3.0 mi NNE 3.5 mph - N/A Rain Light Rain
8:55 AM 37.6 °F 32.3 °F 36.5 °F 96% 29.93 in 4.0 mi NW 6.9 mph - 0.02 in Rain Rain
9:15 AM 37.4 °F 32.1 °F 36.0 °F 95% 29.91 in 4.0 mi NNW 6.9 mph - 0.01 in Rain Light Rain
9:55 AM 37.9 °F 33.5 °F 36.5 °F 95% 29.92 in 7.0 mi NNW 5.8 mph - 0.01 in   Overcast
10:15 AM 37.9 °F 32.7 °F 36.5 °F 95% 29.91 in 4.0 mi NNW 6.9 mph - N/A   Overcast
10:35 AM 37.6 °F 31.6 °F 36.3 °F 95% 29.92 in 1.8 mi NW 8.1 mph - N/A   Overcast
10:55 AM 37.4 °F 31.4 °F 36.0 °F 95% 29.92 in 1.5 mi NW 8.1 mph - N/A Rain Rain
11:15 AM 37.6 °F 29.6 °F 36.0 °F 94% 29.95 in 2.0 mi NW 12.7 mph - N/A   Light Drizzle
11:35 AM 37.9 °F 32.7 °F 36.5 °F 95% 29.94 in 2.0 mi NNW 6.9 mph - N/A Rain Light Rain
12:15 PM 37.9 °F 30.9 °F 36.1 °F 93% 29.97 in 5.0 mi NNW 10.4 mph - N/A   Overcast
12:35 PM 37.8 °F 31.8 °F 36.0 °F 93% 29.97 in 2.0 mi NNW 8.1 mph - N/A   Drizzle
12:55 PM 37.4 °F 30.8 °F 35.8 °F 94% 29.95 in 2.5 mi NNW 9.2 mph - N/A Rain Light Rain
1:15 PM 37.8 °F 30.7 °F 36.0 °F 93% 29.93 in 7.0 mi NNW 10.4 mph 16.1 mph N/A   Overcast
1:35 PM 37.8 °F 30.2 °F 35.6 °F 92% 29.93 in 10.0 mi NNW 11.5 mph 17.3 mph N/A   Overcast
2:15 PM 37.4 °F 30.8 °F 34.7 °F 90% 29.92 in 10.0 mi NNW 9.2 mph 17.3 mph N/A   Overcast
2:35 PM 36.9 °F 29.1 °F 34.7 °F 92% 29.91 in 4.0 mi NNW 11.5 mph - N/A   Drizzle
2:55 PM 36.7 °F 31.2 °F 34.7 °F 93% 29.92 in 3.0 mi North 6.9 mph - N/A   Heavy Drizzle
3:15 PM 36.7 °F 30.5 °F 34.9 °F 93% 29.91 in 3.0 mi North 8.1 mph - N/A   Drizzle
3:35 PM 36.7 °F 31.2 °F 34.7 °F 93% 29.91 in 2.5 mi NW 6.9 mph - N/A   Drizzle
3:55 PM 36.7 °F 30.5 °F 34.9 °F 93% 29.90 in 2.5 mi NNW 8.1 mph - N/A   Drizzle
4:15 PM 36.9 °F 30.1 °F 35.1 °F 93% 29.88 in 3.0 mi NNW 9.2 mph - N/A   Drizzle
4:35 PM 36.7 °F 31.2 °F 34.7 °F 93% 29.87 in 5.0 mi North 6.9 mph - N/A   Overcast
4:55 PM 36.9 °F 30.7 °F 34.7 °F 92% 29.86 in 10.0 mi North 8.1 mph - N/A   Overcast
5:15 PM 37.2 °F 30.6 °F 34.7 °F 91% 29.84 in 10.0 mi North 9.2 mph - N/A   Overcast
5:35 PM 37.0 °F 31.0 °F 34.2 °F 89% 29.84 in 10.0 mi North 8.1 mph 17.3 mph N/A   Overcast
5:55 PM 37.4 °F 31.4 °F 34.2 °F 88% 29.83 in 10.0 mi North 8.1 mph 16.1 mph N/A   Overcast
6:15 PM 37.4 °F 31.4 °F 34.2 °F 88% 29.82 in 10.0 mi North 8.1 mph - N/A   Overcast
6:35 PM 37.2 °F 32.6 °F 34.2 °F 89% 29.81 in 10.0 mi North 5.8 mph - N/A   Overcast
6:55 PM 37.0 °F 31.6 °F 34.3 °F 90% 29.81 in 10.0 mi NNW 6.9 mph - N/A   Light Drizzle
7:15 PM 36.9 °F 32.2 °F 34.5 °F 91% 29.82 in 7.0 mi NNW 5.8 mph - N/A   Drizzle
7:35 PM 36.5 °F 31.8 °F 34.3 °F 92% 29.81 in 4.0 mi NNW 5.8 mph - 0.01 in Rain Light Rain
7:55 PM 36.1 °F 32.3 °F 34.2 °F 93% 29.82 in 4.0 mi NNW 4.6 mph - 0.02 in Rain Light Rain
8:15 PM 36.0 °F 32.1 °F 34.2 °F 93% 29.81 in 5.0 mi NNW 4.6 mph - N/A Rain Light Rain
8:35 PM 35.8 °F 30.1 °F 34.2 °F 94% 29.81 in 5.0 mi NW 6.9 mph - 0.01 in Rain Rain
8:55 PM 35.4 °F 30.5 °F 33.8 °F 94% 29.84 in 4.0 mi West 5.8 mph - 0.01 in Rain Light Rain
9:15 PM 34.7 °F 28.8 °F 33.4 °F 95% 29.83 in 3.0 mi NW 6.9 mph - 0.01 in Snow Light Snow
9:55 PM 33.8 °F 27.7 °F 32.9 °F 96% 29.81 in 3.0 mi NW 6.9 mph - 0.04 in Snow Light Snow
10:15 PM 33.8 °F 27.0 °F 32.9 °F 96% 29.81 in 4.0 mi NW 8.1 mph - N/A Snow Light Snow
10:35 PM 34.0 °F 26.0 °F 33.1 °F 96% 29.82 in 5.0 mi NW 10.4 mph - N/A Snow Light Snow
10:55 PM 33.8 °F 26.4 °F 32.9 °F 96% 29.81 in 4.0 mi NW 9.2 mph - N/A Snow Light Snow
11:15 PM 33.8 °F 24.8 °F 32.7 °F 96% 29.81 in 4.0 mi WNW 12.7 mph - N/A Snow Light Snow
11:35 PM 33.8 °F 25.8 °F 32.4 °F 94% 29.81 in 2.5 mi WNW 10.4 mph - N/A Snow Light Snow
11:55 PM 33.8 °F 25.8 °F 32.4 °F 94% 29.81 in 1.5 mi WNW 10.4 mph - 0.01 in Snow Light Snow